Regional Weather Roundup
Issued by NWS

Home | Current Version | Previous Version | Text Only | Print | Product List | Glossary On
Versions: 1 2 3 4 5 6 7 8 9 10 11 12 13 14 15 16 17 18 19 20 21 22 23 24 25 26 27
000
ASUS45 KTFX 231710
RWRMT
MONTANA REGIONAL WEATHER ROUNDUP
NATIONAL WEATHER SERVICE GREAT FALLS MT
1000 AM MST THU NOV 23 2017

NOTE: "FAIR" INDICATES FEW OR NO CLOUDS BELOW 12000 FEET WITH NO
SIGNIFICANT WEATHER AND/OR OBSTRUCTIONS TO VISIBILITY.

MTZ001>007-043-231800-
WEST OF THE DIVIDE

CITY           SKY/WX    TMP DP  RH WIND       PRES   REMARKS
KALISPELL      PTSUNNY   54  49  83 SW15      29.74F
MISSOULA       FAIR      51  44  77 CALM      29.86F
BUTTE          FAIR      42  31  64 S8        29.99F
MULLAN PASS    RAIN      41  39  93 SW12G32   29.86F FOG
ANACONDA         N/A     57  36  44 SW25G38   29.93F
DEER LODGE       N/A     54  37  54 SE15G22   29.93F
EUREKA           N/A     57  46  67 MISG      29.69F
HAMILTON         N/A     57  39  51 SE15      29.91F
LIBBY            N/A     50  50 100 CALM      29.72F
RONAN            N/A     57  44  62 SE12      29.87F
$$

MTZ008-052>055-231800-
SOUTHWEST MONTANA

CITY           SKY/WX    TMP DP  RH WIND       PRES   REMARKS
BOZEMAN        CLOUDY    53  35  50 S9        29.96F
DILLON         FAIR      53  37  54 S8        30.01F
W YELLOWSTONE  CLOUDY    45  37  76 VRB5      30.18S
ENNIS          CLOUDY    54  37  54 S18       30.07F
$$

MTZ009-010-012-014-046-048-049-054-231800-
EAST SLOPES AND CENTRAL MONTANA

CITY           SKY/WX    TMP DP  RH WIND       PRES   REMARKS
CUT BANK       FAIR      57  43  59 SW39G46   29.62F
GREAT FALLS    FAIR      63  35  35 SW32G43   29.72F
MALMSTROM AFB  FAIR      62  36  37 SW31G43   29.73S
HELENA         FAIR      48  40  73 VRB3      29.85F
BOWMANS CRNR   FAIR      58  36  43 SW30G40   29.76F
CHOTEAU          N/A     63  37  39 SW32G47   29.68F
FAIRFIELD      FAIR      60  37  42 SW33G43   29.71F
POWER          FAIR      60  37  41 SW39G52   29.69F
RAYNESFORD     FAIR      63  33  32 W35G52    29.74F
ULM            FAIR      63  35  35 SW28G36   29.75F
$$

MTZ011-013-016-021-045-047-050-051-231800-
NORTH CENTRAL MONTANA

CITY           SKY/WX    TMP DP  RH WIND       PRES   REMARKS
HAVRE          FAIR      62  41  46 SW26G33   29.61F
LEWISTOWN      FAIR      61  34  36 SW22G32   29.77F
N BAR RANCH    FAIR      61  30  31 SW21G36   29.81F
CHINOOK          N/A     66  39  37 SW25G45   29.57F
DENTON         FAIR      61  36  39 SW12G17   29.68F
GEYSER         FAIR      62  33  34 W38G55    29.71S
GRASS RANGE    FAIR      63  32  31 W24G32    29.72F
STANFORD       FAIR      61  32  32 W43G54    29.72F
WINIFRED       FAIR      62  36  37 SW14G25   29.72F
$$

MTZ017>020-022>027-061-062-231800-
NORTHEAST MONTANA

CITY           SKY/WX    TMP DP  RH WIND       PRES   REMARKS
GLASGOW        FAIR      58  39  49 SW10      29.64F
GLENDIVE       PTSUNNY   54  40  59 SW16      29.73F
JORDAN           N/A     60  38  43 W15       29.72F
SIDNEY         FAIR      50  41  71 S10       29.67F
WOLF POINT     FAIR      40  35  83 SW7       29.65F
MALTA          SUNNY     64  41  42 SW9G15    29.62F
PLENTYWOOD       N/A     52  41  66 SW3       29.60F
POPLAR           N/A     41  36  81 N3        29.64F
$$

MTZ028>42-056>058-231800-
SOUTHCENTRAL AND SOUTHEAST MONTANA

CITY           SKY/WX    TMP DP  RH WIND       PRES   REMARKS
BAKER          FAIR      58  40  51 W14       29.80F
BILLINGS       FAIR      59  39  47 SW17      29.85F
LIVINGSTON     FAIR      59  39  47 SW33G49   29.89S
MILES CITY     FAIR      49  41  74 SE8       29.79F
BIG TIMBER     SUNNY     59  36  41 SW32G43   29.87F
FORSYTH          N/A     63  37  39 W7        29.78F
HARLOWTON      PTSUNNY   59  33  37 NW17G38   29.83F
LAUREL           N/A     61  37  41 SW18      29.87F
ROUNDUP          N/A     58  36  43 S16       29.74F
$$

REGIONAL REPORTS...DAKOTAS

CITY           SKY/WX    TMP DP  RH WIND       PRES   REMARKS
WILLISTON      FAIR      46  39  76 SW10      29.64F
MINOT          PTSUNNY   50  39  66 SW12      29.62F
DICKINSON      FAIR      60  40  47 SW14      29.72F
BEACH          FAIR      57  37  47 W23G32    29.77F
CROSBY         FAIR      48  41  76 SW20G28   29.57F
TIOGA          FAIR      45  45 100 SW13      29.64F
WATFORD CITY   FAIR      55  41  58 SW14      29.66F
BISMARCK       FAIR      43  36  76 CALM      29.74F
GRAND FORKS    CLOUDY    32  31  96 S12       29.79F FOG     WCI  23
FARGO          CLOUDY    31  29  92 S10       29.84S WCI  22
RAPID CITY     FAIR      64  38  38 SE5       29.91F
$$

REGIONAL REPORTS...WYOMING/IDAHO/WASHINGTON

CITY           SKY/WX    TMP DP  RH WIND       PRES   REMARKS
GILLETTE       FAIR      61  36  39 SW21      29.93F
SHERIDAN       FAIR      50  41  71 N6        29.90F
BUFFALO WY     FAIR      50  32  50 W8        29.97S
CODY           PTSUNNY   61  34  36 NW14G24   30.02F
YELLOWSTONE LA   N/A     41  37  86 VRB5      30.24F
IDAHO FALLS    PTSUNNY   39  38  96 N7        30.19S
SALMON         CLOUDY    37  37 100 CALM      30.09F FOG
BOISE          FAIR      55  44  66 SE13      30.08F
SPOKANE        PTSUNNY   53  51  93 SW22G30   29.79F
$$

REGIONAL REPORTS...ALBERTA

CITY           SKY/WX    TMP DP  RH WIND       PRES   REMARKS
CALGARY        LGT RAIN  52  39  62 W9        29.41R
LETHBRIDGE     MOSUNNY   57  45  62 SW21G29   29.50F
MEDICINE HAT   MOSUNNY   55  45  67 SW20G25   29.41F
$$

REGIONAL REPORTS...SASKATCHEWAN

CITY           SKY/WX    TMP DP  RH WIND       PRES   REMARKS
SWIFT CURRENT  SUNNY     48  39  71 SW29G36   29.41F
REGINA         MOSUNNY   32  28  86 SE10      29.46F WCI  24
SASKATOON      CLOUDY    27  25  93 S14G20    29.31F WCI  15
$$




USA.gov is the U.S. government's official web portal to all federal, state and local government web resources and services.